PPNLR SBPA-SBFI

Flight info

Callsign PPNLR
Flight time 1h 6m
Altitude 38000
Route NOBEL UZ83 NELUP
Aircraft E35L/M-SABDFGRW/S

Departure

Time 2026-04-25 01:27
Airport Porto Alegre-Salgado Filho International Airport (SBPA)

Arrival

Time 2026-04-25 02:33
Airport Cataratas International Airport (SBFI)
Time Latitude Longitude Altitude Speed Heading
2026-04-25 00:56 -29.99667 -51.17631 18 ft 0 kts 181°
2026-04-25 01:24 -29.99670 -51.17631 18 ft 1 kts 181°
2026-04-25 01:24 -29.99678 -51.17633 18 ft 1 kts 204°
2026-04-25 01:24 -29.99690 -51.17659 18 ft 5 kts 259°
2026-04-25 01:25 -29.99691 -51.17696 18 ft 3 kts 288°
2026-04-25 01:25 -29.99657 -51.17709 18 ft 7 kts 359°
2026-04-25 01:25 -29.99590 -51.17707 18 ft 11 kts
2026-04-25 01:25 -29.99500 -51.17706 18 ft 11 kts 354°
2026-04-25 01:26 -29.99455 -51.17718 18 ft 5 kts 42°
2026-04-25 01:26 -29.99451 -51.17695 18 ft 0 kts 89°
2026-04-25 01:26 -29.99451 -51.17657 19 ft 31 kts 91°
2026-04-25 01:26 -29.99463 -51.17009 19 ft 124 kts 90°
2026-04-25 01:27 -29.99481 -51.15802 256 ft 170 kts 88°
2026-04-25 01:27 -29.99465 -51.14389 1132 ft 186 kts 88°
2026-04-25 01:27 -29.99447 -51.12868 2097 ft 200 kts 91°
2026-04-25 01:28 -29.99544 -51.09690 4192 ft 217 kts 93°
2026-04-25 01:28 -29.99607 -51.08465 4465 ft 244 kts 91°
2026-04-25 01:28 -29.99664 -51.05725 5699 ft 264 kts 86°
2026-04-25 01:28 -29.99153 -51.03757 6815 ft 266 kts 56°
2026-04-25 01:29 -29.97792 -51.02350 7865 ft 269 kts 26°
2026-04-25 01:29 -29.96157 -51.01283 8841 ft 277 kts 33°
2026-04-25 01:29 -29.94562 -50.99998 9666 ft 289 kts 33°
2026-04-25 01:29 -29.92897 -50.98652 10465 ft 300 kts 30°
2026-04-25 01:30 -29.90923 -50.97852 11227 ft 305 kts
2026-04-25 01:30 -29.88837 -50.98095 12005 ft 308 kts 338°
2026-04-25 01:30 -29.86884 -50.99144 12806 ft 314 kts 330°
2026-04-25 01:30 -29.86311 -50.99482 13238 ft 316 kts 328°
2026-04-25 01:31 -29.84415 -51.00634 14434 ft 311 kts 326°
2026-04-25 01:31 -29.82452 -51.01845 14964 ft 329 kts 326°
2026-04-25 01:31 -29.80325 -51.03156 15037 ft 359 kts 327°
2026-04-25 01:31 -29.78231 -51.04439 16728 ft 335 kts 326°
2026-04-25 01:32 -29.76254 -51.05658 18124 ft 321 kts 326°
2026-04-25 01:32 -29.74282 -51.06875 18847 ft 328 kts 327°
2026-04-25 01:32 -29.72250 -51.08125 19640 ft 331 kts 327°
2026-04-25 01:32 -29.70211 -51.09378 20401 ft 335 kts 327°
2026-04-25 01:33 -29.68139 -51.10651 21175 ft 338 kts 327°
2026-04-25 01:33 -29.66059 -51.11929 21935 ft 340 kts 327°
2026-04-25 01:33 -29.63970 -51.13213 22726 ft 341 kts 327°
2026-04-25 01:33 -29.61877 -51.14497 23374 ft 346 kts 326°
2026-04-25 01:34 -29.59733 -51.15812 24082 ft 348 kts 325°
2026-04-25 01:34 -29.57588 -51.17127 24837 ft 350 kts 325°
2026-04-25 01:34 -29.55460 -51.18431 25602 ft 349 kts 324°
2026-04-25 01:34 -29.53335 -51.19731 26515 ft 344 kts 323°
2026-04-25 01:35 -29.51238 -51.21017 27412 ft 339 kts 322°
2026-04-25 01:35 -29.49164 -51.22283 28197 ft 337 kts 321°
2026-04-25 01:35 -29.47114 -51.23535 29116 ft 330 kts 321°
2026-04-25 01:35 -29.45121 -51.24751 29937 ft 327 kts 320°
2026-04-25 01:36 -29.43092 -51.25996 30537 ft 329 kts 320°
2026-04-25 01:36 -29.41083 -51.27223 31319 ft 326 kts 320°
2026-04-25 01:36 -29.39105 -51.28430 32087 ft 323 kts 319°
2026-04-25 01:36 -29.37122 -51.29641 32749 ft 322 kts 319°
2026-04-25 01:37 -29.35163 -51.30835 33545 ft 319 kts 318°
2026-04-25 01:37 -29.33210 -51.32028 34234 ft 320 kts 319°
2026-04-25 01:37 -29.31251 -51.33223 34894 ft 320 kts 319°
2026-04-25 01:37 -29.29288 -51.34417 35676 ft 317 kts 318°
2026-04-25 01:38 -29.27351 -51.35597 36406 ft 316 kts 318°
2026-04-25 01:38 -29.25380 -51.36799 36969 ft 318 kts 317°
2026-04-25 01:38 -29.23433 -51.37984 37489 ft 320 kts 318°
2026-04-25 01:38 -29.21454 -51.39187 38020 ft 322 kts 318°
2026-04-25 01:39 -29.19432 -51.40422 38047 ft 335 kts 319°
2026-04-25 01:39 -29.17352 -51.41685 38064 ft 343 kts 319°
2026-04-25 01:39 -29.13035 -51.44306 38063 ft 359 kts 319°
2026-04-25 01:40 -29.08682 -51.47287 38070 ft 359 kts 309°
2026-04-25 01:40 -29.05554 -51.51590 38061 ft 352 kts 291°
2026-04-25 01:41 -29.03529 -51.56737 38057 ft 363 kts 288°
2026-04-25 01:41 -29.01385 -51.62076 38052 ft 375 kts 289°
2026-04-25 01:42 -28.99182 -51.67491 38058 ft 376 kts 290°
2026-04-25 01:42 -28.97005 -51.72837 38053 ft 366 kts 289°
2026-04-25 01:43 -28.94885 -51.78032 38053 ft 355 kts 289°
2026-04-25 01:43 -28.92818 -51.83097 38058 ft 350 kts 289°
2026-04-25 01:44 -28.90766 -51.88118 38057 ft 349 kts 289°
2026-04-25 01:44 -28.88696 -51.93173 38058 ft 349 kts 290°
2026-04-25 01:45 -28.86629 -51.98213 38056 ft 348 kts 289°
2026-04-25 01:45 -28.84579 -52.03207 38055 ft 348 kts 289°
2026-04-25 01:46 -28.82050 -52.07911 38065 ft 359 kts 303°
2026-04-25 01:46 -28.80185 -52.09886 38063 ft 370 kts 312°
2026-04-25 01:46 -28.77951 -52.11486 38065 ft 383 kts 322°
2026-04-25 01:47 -28.73088 -52.14103 38065 ft 385 kts 321°
2026-04-25 01:47 -28.68316 -52.16910 38069 ft 393 kts 321°
2026-04-25 01:48 -28.63400 -52.19837 38066 ft 401 kts 321°
2026-04-25 01:48 -28.58408 -52.22809 38060 ft 405 kts 321°
2026-04-25 01:49 -28.53387 -52.25796 38054 ft 408 kts 321°
2026-04-25 01:49 -28.48323 -52.28806 38049 ft 411 kts 322°
2026-04-25 01:50 -28.43266 -52.31807 38051 ft 408 kts 322°
2026-04-25 01:50 -28.38224 -52.34797 38055 ft 402 kts 322°
2026-04-25 01:51 -28.33291 -52.37720 38058 ft 398 kts 321°
2026-04-25 01:51 -28.28372 -52.40632 38062 ft 398 kts 321°
2026-04-25 01:52 -28.23433 -52.43554 38061 ft 401 kts 322°
2026-04-25 01:52 -28.18411 -52.46519 38059 ft 403 kts 322°
2026-04-25 01:53 -28.13430 -52.49457 38057 ft 402 kts 322°
2026-04-25 01:53 -28.08659 -52.52268 38055 ft 399 kts 322°
2026-04-25 01:54 -28.03738 -52.55166 38053 ft 396 kts 322°
2026-04-25 01:54 -27.98873 -52.58027 38054 ft 393 kts 322°
2026-04-25 01:55 -27.94032 -52.60871 38057 ft 390 kts 322°
2026-04-25 01:55 -27.89185 -52.63717 38060 ft 388 kts 322°
2026-04-25 01:56 -27.84366 -52.66543 38081 ft 387 kts 323°
2026-04-25 01:56 -27.79601 -52.69334 38078 ft 387 kts 322°
2026-04-25 01:57 -27.72385 -52.73557 38079 ft 390 kts 323°
2026-04-25 01:58 -27.67564 -52.76392 38073 ft 392 kts 323°
2026-04-25 01:58 -27.65007 -52.77594 38079 ft 404 kts 332°
2026-04-25 01:58 -27.62332 -52.78539 38070 ft 406 kts 332°
2026-04-25 01:59 -27.56913 -52.80457 38069 ft 408 kts 333°
2026-04-25 01:59 -27.51535 -52.82550 38068 ft 404 kts 325°
2026-04-25 02:00 -27.46568 -52.85545 38061 ft 406 kts 323°
2026-04-25 02:00 -27.41544 -52.88564 38062 ft 411 kts 323°
2026-04-25 02:01 -27.39871 -52.89569 38056 ft 413 kts 323°
2026-04-25 02:01 -27.31204 -52.94763 38040 ft 419 kts 323°
2026-04-25 02:02 -27.26042 -52.97851 38030 ft 417 kts 324°
2026-04-25 02:02 -27.20898 -53.00925 38030 ft 416 kts 323°
2026-04-25 02:03 -27.15754 -53.03997 38027 ft 415 kts 323°
2026-04-25 02:03 -27.10682 -53.07021 38022 ft 404 kts 323°
2026-04-25 02:04 -27.05730 -53.09974 38020 ft 400 kts 323°
2026-04-25 02:04 -27.00821 -53.12896 38026 ft 398 kts 323°
2026-04-25 02:05 -26.95947 -53.15796 38024 ft 396 kts 324°
2026-04-25 02:05 -26.91064 -53.18697 38031 ft 394 kts 323°
2026-04-25 02:06 -26.86214 -53.21576 38033 ft 393 kts 323°
2026-04-25 02:06 -26.81393 -53.24434 38035 ft 391 kts 323°
2026-04-25 02:07 -26.76555 -53.27301 38025 ft 391 kts 323°
2026-04-25 02:07 -26.74166 -53.28716 37448 ft 393 kts 324°
2026-04-25 02:07 -26.71756 -53.30140 36849 ft 388 kts 324°
2026-04-25 02:07 -26.69377 -53.31547 36255 ft 383 kts 324°
2026-04-25 02:08 -26.67024 -53.32938 35661 ft 378 kts 324°
2026-04-25 02:08 -26.64719 -53.34300 35071 ft 373 kts 324°
2026-04-25 02:08 -26.62431 -53.35651 34480 ft 369 kts 324°
2026-04-25 02:08 -26.60171 -53.36986 33890 ft 365 kts 324°
2026-04-25 02:09 -26.57937 -53.38305 33306 ft 360 kts 325°
2026-04-25 02:09 -26.55716 -53.39614 32732 ft 361 kts 325°
2026-04-25 02:09 -26.53457 -53.40951 32230 ft 384 kts 325°
2026-04-25 02:09 -26.51013 -53.42391 31705 ft 403 kts 326°
2026-04-25 02:10 -26.48482 -53.43882 31183 ft 420 kts 326°
2026-04-25 02:10 -26.45856 -53.45426 30654 ft 425 kts 326°
2026-04-25 02:10 -26.43267 -53.46947 30125 ft 421 kts 326°
2026-04-25 02:10 -26.40665 -53.48478 29592 ft 424 kts 326°
2026-04-25 02:11 -26.38037 -53.50022 29065 ft 429 kts 326°
2026-04-25 02:11 -26.35373 -53.51587 28537 ft 432 kts 326°
2026-04-25 02:11 -26.32727 -53.53141 28016 ft 434 kts 326°
2026-04-25 02:11 -26.30064 -53.54703 27496 ft 436 kts 326°
2026-04-25 02:12 -26.27352 -53.56294 26968 ft 437 kts 326°
2026-04-25 02:12 -26.24658 -53.57872 26441 ft 439 kts 326°
2026-04-25 02:12 -26.21946 -53.59462 25914 ft 440 kts 327°
2026-04-25 02:12 -26.19252 -53.61039 25399 ft 440 kts 327°
2026-04-25 02:13 -26.16542 -53.62624 24870 ft 435 kts 326°
2026-04-25 02:13 -26.13903 -53.64167 24351 ft 428 kts 326°
2026-04-25 02:13 -26.11297 -53.65691 23830 ft 420 kts 327°
2026-04-25 02:13 -26.08727 -53.67193 23329 ft 411 kts 327°
2026-04-25 02:14 -26.06175 -53.68683 22827 ft 404 kts 327°
2026-04-25 02:14 -26.03704 -53.70126 22333 ft 397 kts 326°
2026-04-25 02:14 -26.01288 -53.71536 21889 ft 391 kts 327°
2026-04-25 02:14 -25.98891 -53.72934 21456 ft 386 kts 327°
2026-04-25 02:15 -25.96512 -53.74322 21014 ft 386 kts 327°
2026-04-25 02:15 -25.94131 -53.75710 20569 ft 389 kts 327°
2026-04-25 02:15 -25.91729 -53.77110 20126 ft 391 kts 327°
2026-04-25 02:15 -25.89311 -53.78517 19678 ft 393 kts 328°
2026-04-25 02:16 -25.86884 -53.79929 19232 ft 392 kts 328°
2026-04-25 02:16 -25.84492 -53.81383 18758 ft 379 kts 322°
2026-04-25 02:16 -25.82697 -53.83329 18297 ft 356 kts 303°
2026-04-25 02:16 -25.81365 -53.85600 17836 ft 343 kts 301°
2026-04-25 02:17 -25.80095 -53.87798 17373 ft 332 kts 301°
2026-04-25 02:17 -25.78952 -53.89788 16927 ft 324 kts 301°
2026-04-25 02:17 -25.77757 -53.91872 16448 ft 316 kts 301°
2026-04-25 02:17 -25.76591 -53.93906 15970 ft 309 kts 301°
2026-04-25 02:18 -25.75456 -53.95887 15494 ft 303 kts 301°
2026-04-25 02:18 -25.74321 -53.97870 15008 ft 298 kts 301°
2026-04-25 02:18 -25.73220 -53.99793 14528 ft 294 kts 301°
2026-04-25 02:18 -25.72142 -54.01672 14055 ft 291 kts 301°
2026-04-25 02:19 -25.71057 -54.03563 13573 ft 288 kts 301°
2026-04-25 02:19 -25.69983 -54.05432 13096 ft 286 kts 301°
2026-04-25 02:19 -25.68923 -54.07277 12628 ft 284 kts 301°
2026-04-25 02:19 -25.67862 -54.09126 12156 ft 283 kts 302°
2026-04-25 02:20 -25.66812 -54.10950 11701 ft 281 kts 302°
2026-04-25 02:20 -25.65760 -54.12781 11283 ft 278 kts 302°
2026-04-25 02:20 -25.64731 -54.14569 10904 ft 275 kts 302°
2026-04-25 02:20 -25.63722 -54.16322 10570 ft 270 kts 302°
2026-04-25 02:21 -25.62709 -54.18081 10270 ft 265 kts 302°
2026-04-25 02:21 -25.61715 -54.19807 9696 ft 272 kts 302°
2026-04-25 02:21 -25.60690 -54.21587 9114 ft 278 kts 302°
2026-04-25 02:21 -25.59636 -54.23415 8549 ft 281 kts 303°
2026-04-25 02:22 -25.58595 -54.25219 8164 ft 277 kts 303°
2026-04-25 02:22 -25.57578 -54.26984 7874 ft 270 kts 303°
2026-04-25 02:22 -25.56577 -54.28717 7530 ft 268 kts 303°
2026-04-25 02:22 -25.55562 -54.30476 7040 ft 270 kts 303°
2026-04-25 02:23 -25.54553 -54.32222 6560 ft 272 kts 303°
2026-04-25 02:23 -25.53525 -54.34001 6072 ft 273 kts 303°
2026-04-25 02:23 -25.52504 -54.35767 5587 ft 274 kts 303°
2026-04-25 02:23 -25.51477 -54.37544 5099 ft 275 kts 303°
2026-04-25 02:24 -25.50447 -54.39325 4612 ft 276 kts 303°
2026-04-25 02:24 -25.49411 -54.41116 4124 ft 276 kts 303°
2026-04-25 02:24 -25.48396 -54.42869 3952 ft 263 kts 303°
2026-04-25 02:24 -25.47434 -54.44531 4003 ft 245 kts 303°
2026-04-25 02:25 -25.46541 -54.46072 4007 ft 232 kts 304°
2026-04-25 02:25 -25.45699 -54.47525 4005 ft 220 kts 304°
2026-04-25 02:25 -25.44891 -54.48918 4008 ft 208 kts 303°
2026-04-25 02:25 -25.44109 -54.50267 4018 ft 211 kts 304°
2026-04-25 02:26 -25.43304 -54.51654 4020 ft 216 kts 303°
2026-04-25 02:26 -25.42482 -54.53072 4021 ft 222 kts 303°
2026-04-25 02:26 -25.41647 -54.54510 4146 ft 218 kts 303°
2026-04-25 02:26 -25.40841 -54.55899 4337 ft 213 kts 303°
2026-04-25 02:27 -25.40044 -54.57293 4458 ft 227 kts 298°
2026-04-25 02:27 -25.39791 -54.58921 4952 ft 207 kts 264°
2026-04-25 02:27 -25.40429 -54.60341 4711 ft 213 kts 223°
2026-04-25 02:27 -25.41760 -54.61095 4240 ft 228 kts 194°
2026-04-25 02:28 -25.43342 -54.61622 3672 ft 240 kts 199°
2026-04-25 02:28 -25.44900 -54.62242 3104 ft 240 kts 200°
2026-04-25 02:28 -25.46483 -54.62868 2585 ft 230 kts 194°
2026-04-25 02:28 -25.47918 -54.62824 2290 ft 188 kts 160°
2026-04-25 02:29 -25.48887 -54.62098 2282 ft 155 kts 136°
2026-04-25 02:29 -25.49703 -54.61217 2321 ft 175 kts 134°
2026-04-25 02:29 -25.50582 -54.60171 2304 ft 186 kts 131°
2026-04-25 02:29 -25.51446 -54.59095 2297 ft 189 kts 131°
2026-04-25 02:30 -25.52295 -54.58022 2282 ft 179 kts 131°
2026-04-25 02:30 -25.53071 -54.57035 2266 ft 159 kts 131°
2026-04-25 02:30 -25.53770 -54.56146 2126 ft 147 kts 131°
2026-04-25 02:30 -25.54411 -54.55330 1948 ft 136 kts 132°
2026-04-25 02:31 -25.55039 -54.54532 1772 ft 137 kts 132°
2026-04-25 02:31 -25.55666 -54.53728 1576 ft 137 kts 131°
2026-04-25 02:31 -25.56286 -54.52920 1386 ft 136 kts 131°
2026-04-25 02:31 -25.56913 -54.52149 1215 ft 133 kts 133°
2026-04-25 02:32 -25.57518 -54.51368 1058 ft 136 kts 129°
2026-04-25 02:32 -25.58124 -54.50588 896 ft 130 kts 132°
2026-04-25 02:32 -25.58712 -54.49846 743 ft 123 kts 131°
2026-04-25 02:32 -25.59215 -54.49210 756 ft 91 kts 130°
2026-04-25 02:33 -25.59539 -54.48795 774 ft 58 kts 130°
2026-04-25 02:33 -25.59670 -54.48696 779 ft 15 kts 209°
2026-04-25 02:33 -25.59717 -54.48734 779 ft 0 kts 221°
2026-04-25 02:33 -25.59719 -54.48735 779 ft 0 kts 221°
2026-04-25 02:34 -25.59740 -54.48748 779 ft 6 kts 189°
2026-04-25 02:34 -25.59795 -54.48704 781 ft 8 kts 128°
2026-04-25 02:34 -25.59828 -54.48678 782 ft 4 kts 200°
2026-04-25 02:34 -25.59865 -54.48710 782 ft 4 kts 219°
2026-04-25 02:35 -25.59881 -54.48724 784 ft 1 kts 219°
2026-04-25 02:35 -25.59885 -54.48728 784 ft 0 kts 219°